MET-2/21 (22782 NORAD) Tracking and Keplerian Element Data

This shows tracking and keplerian element data for the satellite.

Feedback or suggestion? Click here.




ElementValue
Catalog22782
NameMET-2/21
Epoch Orbit50563
Epoch Day174.76810266
Epoch Year2023
RAAN79.5432
Inclination82.5495
Eccentricity0.0023056
Argument of Perigee28.6237
Mean Anonmoly25.5281
Mean Motion13.83887623
Decay Rate8.8E-07
L11 22782U 93055A 23174.76810266 .00000088 00000-0 65714-4 0 9999
L22 22782 82.5495 79.5432 0023056 28.6237 25.5281 13.83887623505631



Live tracking and technical data element details for MET-2/21 (NORAD 22782). MET-2/21 can be tracked NOW for your location showing map with azimuth and elevation plus other details from your city location.







IsCatalogInMostPopularTable: catalog: 22782, numindb: 486
Update: records affected: 1



GetName: 22782 MET-2/21

Hit Count: updated at: Thu, 23 Jan 2025 15:55:30 GMT